Location: Newark
(46.7000°N, 60.6000°W)
Time: 21:59:29
(UTC+00:00)

Vanguard 1 Rocket - Pass Details

Date: 09 November 2020
Orbit: 656 x 4221 km, 34.3° (Epoch: 30 November)

Event Time Altitude Azimuth Distance (km) Brightness Sun altitude
Rises 09:40:12 0° 220° (SW) 6,798 11.6 -13.3°
Reaches altitude 10° 09:46:37 10° 208° (SSW) 5,083 11.0 -12.3°
Maximum altitude 09:55:48 23° 164° (SSE) 3,061 10.4 -10.7°
Drops below altitude 10° 10:01:48 10° 116° (ESE) 3,187 11.7 -9.7°
Sets 10:04:41 0° 101° (E) 3,801 13.0 -9.3°
